Regional Weather Roundup
Issued by NWS

Home | Current Version | Previous Version | Text Only | Print | Product List | Glossary On
Versions: 1 2 3 4 5 6 7 8 9 10 11 12 13 14 15 16 17 18 19 20 21 22 23 24 25 26 27 28 29 30 31 32 33 34 35 36 37 38 39 40 41 42 43 44 45 46 47 48 49 50
000
ASUS45 KPSR 181610
RWRAZ

ARIZONA REGIONAL HOURLY WEATHER ROUNDUP
NATIONAL WEATHER SERVICE PHOENIX AZ
900 AM MST FRI APR 18 2014

NOTE: FAIR INDICATES FEW OR NO CLOUDS BELOW 12,000 FEET WITH NO
SIGNIFICANT WEATHER AND/OR OBSTRUCTIONS TO VISIBILITY.

AZZ001>003-036-181700-
NORTHWEST ARIZONA

CITY           SKY/WX    TMP DP  RH WIND       PRES   REMARKS
BULLHEAD CITY  CLOUDY    72  32  23 SW3       29.85R
KINGMAN        CLOUDY    66  21  18 SE12      29.94R
$$

AZZ004>008-015-016-018-181700-
NORTH CENTRAL ARIZONA

CITY           SKY/WX    TMP DP  RH WIND       PRES   REMARKS
GRAND CANYON   PTSUNNY   60  19  20 S14       30.10S
WILLIAMS       CLOUDY    55  19  24 SE8       30.18R
PRESCOTT       CLOUDY    58  23  26 SE8       30.05R
FLAGSTAFF      CLOUDY    53  21  28 SW12      30.14R
PAYSON         CLOUDY    59  25  27 SE5       30.10S
PAGE           MOSUNNY   64  22  20 VRB5      29.99R
$$

AZZ009>014-017-181700-
NORTHEAST ARIZONA

CITY           SKY/WX    TMP DP  RH WIND       PRES   REMARKS
WINSLOW        CLOUDY    61  22  22 E13       30.06R
SAINT JOHNS    CLOUDY    68  18  14 S22       30.07F
WINDOW ROCK    MOSUNNY   60  20  21 VRB5      30.16S
SHOW LOW       CLOUDY    55  18  22 SW5       30.15R
$$

AZZ023-181700-
GREATER PHOENIX AREA

CITY           SKY/WX    TMP DP  RH WIND       PRES   REMARKS
PHOENIX        PTSUNNY   78  37  22 E7        29.90S
BUCKEYE          N/A     77  36  22 E10       29.91R
GLENDALE       PTSUNNY   75  37  25 E3        29.92R
LUKE AFB       NOT AVBL
DEER VALLEY    PTSUNNY   73  33  23 CALM      29.92R
SCOTTSDALE     MOSUNNY   75  35  23 SE6       29.94R
MESA-FALCON    PTSUNNY   75  34  22 SE6       29.93R
MESA-GATEWAY   PTSUNNY   73  34  23 SE8       29.93S
CHANDLER       PTSUNNY   75  41  29 CALM      29.93R
$$

AZZ027-028-181700-
SOUTHWEST MARICOPA COUNTY AND PINAL COUNTY

CITY           SKY/WX    TMP DP  RH WIND       PRES   REMARKS
CASA GRANDE    CLOUDY    73  37  27 CALM      29.95R
GILA BEND      CLOUDY    77  39  25 N2        29.89S
$$

AZZ503-504-507>509-181700-
SOUTHEAST ARIZONA

CITY           SKY/WX    TMP DP  RH WIND       PRES   REMARKS
TUCSON         CLOUDY    72  42  34 S3        30.01R
DAVIS-MONTHAN  CLOUDY    72  42  34 SE3       30.00R
RYAN FIELD       N/A     72  37  28 MISG      30.00R
NOGALES        CLOUDY    66  42  41 N5        30.02F
SIERRA VISTA   CLOUDY    64  30  27 VRB7      30.08R
DOUGLAS        CLOUDY    67  28  23 SE8       30.07R
SAFFORD        CLOUDY    69  25  19 SE7       30.01S
$$

AZZ020-021-025-026-031-181700-
SOUTHWEST ARIZONA

CITY           SKY/WX    TMP DP  RH WIND       PRES   REMARKS
YUMA           CLOUDY    77  46  33 SE15      29.83R
$$

CAZ031-033-041-043-047-048-061-181700-
SOUTHERN CALIFORNIA

CITY           SKY/WX    TMP DP  RH WIND       PRES   REMARKS
DOWNTOWN L.A.  CLOUDY    64  50  60 CALM      29.91S
L.A. AIRPORT   PTSUNNY   63  52  67 CALM      29.92R
SAN DIEGO      CLOUDY    63  54  72 S7        29.94R
BURBANK        CLOUDY    59  53  80 CALM      29.92R
ONTARIO        CLOUDY    60  53  77 W7        29.92S HAZE
RIVERSIDE      CLOUDY    61  53  75 VRB6      29.93R
PALM SPRINGS   CLOUDY    70  51  51 CALM      29.86R
EL CENTRO NAS  CLOUDY    70  59  68 SE6       29.81F
IMPERIAL       CLOUDY    71  59  65 SE3       29.80F
BLYTHE         CLOUDY    72  44  36 S5        29.84R
NEEDLES        CLOUDY    76  31  19 SE5       29.84R
$$

NVZ020-UTZ003-181700-
SOUTHERN NEVADA-UTAH

CITY           SKY/WX    TMP DP  RH WIND       PRES   REMARKS
LAS VEGAS      CLOUDY    73  23  15 SW5       29.81S
SALT LAKE CITY CLOUDY    65  25  22 VRB7      29.89R
$$

NMZ009-TXZ055-181700-
NEW MEXICO-WEST TEXAS

CITY           SKY/WX    TMP DP  RH WIND       PRES   REMARKS
ALBUQUERQUE    PTSUNNY   59  28  30 N5        30.18F
EL PASO        CLOUDY    65  41  41 SE8       30.14R
$$


........................KEY........................
SKY/WX - SKY CONDITION/WEATHER
TMP    - TEMPERATURE IN FAHRENHEIT
DP     - DEW POINT IN FAHRENHEIT
RH     - RELATIVE HUMIDITY IN PERCENT
WIND   - DIRECTION AND SPEED IN MILES PER HOUR (MPH)
VRB    - VARIABLE WIND DIRECTION
PRES   - MEAN SEA LEVEL PRESSURE IN INCHES OF MERCURY
         F - FALLING PRESSURE   R - RISING PRESSURE
         S - STEADY PRESSURE
VSB    - VISIBILITY IN MILES
HX     - HEAT INDEX IN FAHRENHEIT
WCI    - WIND CHILL INDEX IN FAHRENHEIT
TC     - TEMPERATURE IN CELSIUS WHICH IS ALSO KNOWN AS
         TEMPERATURE IN CENTIGRADE
AFB    - AIR FORCE BASE
         LUKE AFB IS LUKE AIR FORCE BASE
         DAVIS-MONTHAN IS DAVIS-MONTHAN AIR FORCE BASE
NAS    - NAVAL AIR STATION
         EL CENTRO NAS IS EL CENTRO NAVAL AIR STATION
N/A    - NOT AVAILABLE



USA.gov is the U.S. government's official web portal to all federal, state and local government web resources and services.